"Pseudo-MPEC" for P10Ilee

Created 2018 Jul 14 14:18:20 UT using Find_Orb

Click here for an explanation of pseudo-MPECs

 
 Astrometry: 
     P10Ilee  C2018 07 04k,Astrometry)Z]u4ENw[MpQ[$a!.N,q\m_)^2tFW)l=Yca#D4MOF51
     P10Ilee  C2018 07 04oQ7q_?#W!]J:fbL`b*@lv8KV!2Zy-Oo9@fx_C/;3UFu\,^f'*?/rF51
     P10Ilee  C2018 07 04@u,sunj-v1_\ToQ5\,[2hBJ.#T$BcQ8]i3QlW8hhx$wGU2]Go^i?F51
     P10Ilee  C2018 07 11GlMKhj^(:N;E@s^b;6g87B$t8Ljw;cDb7oP'Li0fq%ekx#Sn9@,*F51
     P10Ilee  C2018 07 11=1%U]I,R2PnIFE+Lhredacted;;l_@WPs[]gNXMYu88*Oa7(sgvwF51
     P10Ilee  C2018 07 11gu(m=w_qq,D,D1Z9mQQ+5'FL/tn_q55S)R*B/!9oFE91ZoJ'F3\]F51
     P10Ilee |C2018 07 123bl-0+XFt1)M;%6qs+=y(RnSZo/GQlZm8h$wF$r2aE'f[x_@oXsx807
     P10Ilee |C2018 07 120h+D]:kh`L[xn9u:=m$l.E',*VuTM=9KseeTS=BmCXk7K@Qih2G4807
     P10Ilee |C2018 07 12@lQr\mmjt1)Fe6=b)`tNwEo(h7:jKZ6A;g9Q5-Bcr%/7SyfMN=Mw807
     P10Ilee |C2018 07 14Fo4:_9Ov[j=tA,[=pSCYk9`D8L@DS=jH+^by38Z#/Ty62C9EhR+3807
     P10Ilee |C2018 07 14E29e0l]TnB8VALnU)$0(@E,w^Qfk7S6#lU38lA,iYc0_1fi5Pq/*807
     P10Ilee |C2018 07 14po[/!GljoFy\^l#E[6.Evse?cojLSaB5Jw\Ji7n^7mtv_QuNEOCP807

Station data:
(807) Cerro Tololo Observatory, La Serena  (S30.169136 W70.805900)  Chile.
   1.5-m Ritchey-Chrétien.
(F51) Pan-STARRS 1, Haleakala  (N20.707235 W156.255910)  US/Hawaii.
   Observers N. Primak, A. Schultz, S. Watters, J. Thiel, T. Goggia. Measurer
   PS1 Science Consortium. 1.8-m Ritchey-Chrétien + CCD.

Orbital elements:  P10Ilee
   Perihelion 2018 Dec 14.935983 +/- 1.07 TT = 22:27:48 (JD 2458467.435983)
Epoch 2018 Jul 14.0 TT = JDT 2458313.5   Earth MOID: 0.0990   AutoNEOCP
M 298.67509 +/- 0.7                 (J2000 ecliptic)
n   0.39837925 +/- 0.00201          Peri.  131.27310 +/- 0.47
a   1.82924371 +/- 0.00616          Node   253.69006 +/- 0.06
e   0.4457929 +/- 0.000939          Incl.   12.56882 +/- 0.11
P   2.47/903.64d           H 19.9   G  0.15   U  8.6  
q 1.01377975 +/- 0.00185    Q 2.64470767 +/- 0.0107
From 12 observations 2018 July 4-14; mean residual 0".07
Residuals in arcseconds: 
180704 F51  .09+  .05+    180711 F51  .05-  .04+    180712 807  .08+  .03-    
180704 F51  .07-  .04-    180711 F51  .09+  .04-    180714 807  .06+  .06+    
180704 F51  .01-  .00     180712 807  .08+  .03-    180714 807  .14-  .02+    
180711 F51  .18-  .04+    180712 807  .01+  .03-    180714 807  .04+  .05-    

Ephemerides (geocentric):
Date (UTC) HH   RA              Dec         delta   r     elong  mag " sig PA
---- -- -- --  -------------   -----------  ------ ------ -----  --- ---- ---
2018 07 14 14  16 28 41.522   -14 09 28.35  .90796 1.7808 135.4 22.0  .25  47
2018 07 14 15  16 28 39.134   -14 09 05.81  .90805 1.7805 135.3 22.0  .26  47
2018 07 14 16  16 28 36.751   -14 08 43.29  .90813 1.7803 135.3 22.0  .26  48
2018 07 14 17  16 28 34.373   -14 08 20.79  .90822 1.7800 135.2 22.0  .27  48
2018 07 14 18  16 28 31.999   -14 07 58.32  .90831 1.7798 135.2 22.0  .28  48
2018 07 14 19  16 28 29.631   -14 07 35.86  .90839 1.7795 135.1 22.0  .29  48
2018 07 14 20  16 28 27.267   -14 07 13.43  .90848 1.7793 135.1 22.0  .29  48
2018 07 14 21  16 28 24.908   -14 06 51.02  .90856 1.7791 135.0 22.0  .30  48
2018 07 14 22  16 28 22.554   -14 06 28.63  .90865 1.7788 135.0 22.0  .31  48
2018 07 14 23  16 28 20.205   -14 06 06.27  .90874 1.7786 134.9 22.0  .32  48
2018 07 15 00  16 28 17.861   -14 05 43.92  .90883 1.7783 134.9 22.0  .32  49
2018 07 15 01  16 28 15.522   -14 05 21.59  .90891 1.7781 134.8 22.0  .33  49
2018 07 15 02  16 28 13.188   -14 04 59.29  .90900 1.7778 134.8 22.0  .34  49
2018 07 15 03  16 28 10.859   -14 04 37.01  .90909 1.7776 134.7 22.0  .35  49
2018 07 15 04  16 28 08.534   -14 04 14.75  .90918 1.7774 134.7 22.0  .36  49
2018 07 15 05  16 28 06.215   -14 03 52.51  .90927 1.7771 134.6 22.0  .37  49
2018 07 15 06  16 28 03.900   -14 03 30.30  .90936 1.7769 134.6 22.0  .37  49
2018 07 15 07  16 28 01.591   -14 03 08.11  .90945 1.7766 134.5 22.0  .38  49
2018 07 15 08  16 27 59.286   -14 02 45.93  .90954 1.7764 134.5 22.0  .39  50
2018 07 15 09  16 27 56.986   -14 02 23.78  .90962 1.7761 134.4 22.0  .40  50
2018 07 15 10  16 27 54.692   -14 02 01.65  .90971 1.7759 134.4 22.0  .41  50
2018 07 15 11  16 27 52.402   -14 01 39.55  .90980 1.7757 134.3 22.0  .42  50
2018 07 15 12  16 27 50.117   -14 01 17.46  .90990 1.7754 134.3 22.0  .43  50
2018 07 15 13  16 27 47.837   -14 00 55.40  .90999 1.7752 134.2 22.0  .44  50
2018 07 15 14  16 27 45.562   -14 00 33.36  .91008 1.7749 134.2 22.0  .45  51
2018 07 15 15  16 27 43.292   -14 00 11.34  .91017 1.7747 134.1 22.0  .45  51
2018 07 15 16  16 27 41.027   -13 59 49.34  .91026 1.7744 134.1 22.0  .46  51
2018 07 15 17  16 27 38.766   -13 59 27.37  .91035 1.7742 134.0 22.0  .47  51
2018 07 15 18  16 27 36.511   -13 59 05.41  .91044 1.7740 134.0 22.0  .48  51
2018 07 15 19  16 27 34.261   -13 58 43.48  .91053 1.7737 133.9 22.0  .49  51
2018 07 15 20  16 27 32.016   -13 58 21.57  .91063 1.7735 133.9 22.0  .50  51
2018 07 15 21  16 27 29.775   -13 57 59.69  .91072 1.7732 133.8 22.0  .51  52
2018 07 15 22  16 27 27.540   -13 57 37.82  .91081 1.7730 133.8 22.0  .52  52
2018 07 15 23  16 27 25.310   -13 57 15.98  .91090 1.7727 133.7 22.0  .53  52
2018 07 16 00  16 27 23.084   -13 56 54.16  .91100 1.7725 133.7 22.1  .54  52
2018 07 16 01  16 27 20.864   -13 56 32.36  .91109 1.7723 133.6 22.1  .55  52
2018 07 16 02  16 27 18.648   -13 56 10.58  .91118 1.7720 133.6 22.1  .56  52
2018 07 16 03  16 27 16.438   -13 55 48.83  .91128 1.7718 133.5 22.1  .57  52
2018 07 16 04  16 27 14.232   -13 55 27.09  .91137 1.7715 133.5 22.1  .58  53
2018 07 16 05  16 27 12.032   -13 55 05.38  .91147 1.7713 133.4 22.1  .59  53
2018 07 16 06  16 27 09.836   -13 54 43.69  .91156 1.7710 133.4 22.1  .60  53
2018 07 16 07  16 27 07.645   -13 54 22.03  .91166 1.7708 133.3 22.1  .62  53
2018 07 16 08  16 27 05.460   -13 54 00.38  .91175 1.7706 133.3 22.1  .63  53
2018 07 16 09  16 27 03.279   -13 53 38.76  .91185 1.7703 133.2 22.1  .64  53
2018 07 16 10  16 27 01.104   -13 53 17.16  .91194 1.7701 133.2 22.1  .65  53
2018 07 16 11  16 26 58.933   -13 52 55.59  .91204 1.7698 133.1 22.1  .66  54
2018 07 16 12  16 26 56.767   -13 52 34.03  .91213 1.7696 133.1 22.1  .67  54
2018 07 16 13  16 26 54.607   -13 52 12.50  .91223 1.7693 133.0 22.1  .68  54